Content
SEND FEEDBACK

Daily
Averages
Monthly
Summary
France

ROUEN, FRANCE


Home > Europe > France
Elevation: 515 feet     Latitude: 49 23N     Longitude: 001 11E

WEATHER
 
SELECT A DAY
Number of Records: 173,832;   Date Range: 7/1/96 - 9/22/14
 
SHARE

PRINT THIS DATA

[ ← Previous Day ]
WEATHER ALMANAC - APRIL 1, 2013
[ Next Day → ]
[ °C ]   °F
Weather ElementAverageHighLow
Temperature36.2 °F46.4 °F (5:30 pm)28 °F (8:00 am)
Dewpoint24.1 °F26.6 °F (9:30 am)21.2 °F (12:30 am)
Humidity62.8 %86 % (4:30 am)33 % (2:00 pm)
Barometer29.72 in29.82 in (2:00 am)29.65 in (6:30 pm)
Wind Speed13.6 mph19.6 mph (1:00 pm)
Weather ElementAverage
Visibility5.3 mi
Wind DirectionENE (65.7 °)

Weather ElementTotal
Precipitation---
Heating Degree Days27.8 (Base 65)
Averaged from 51 records on April 1, 2013
WEATHER CONDITIONS BREAKOUT
WIND DIRECTION BREAKOUT
WEATHER BY HOUR - APRIL 1, 2013
[ °C ]   °F
Local TimeTemperatureDewpointHumidityBarometerVisibilityWind DirectionWind SpeedGust SpeedPrecipitationEventsConditions
12:30 AM28.4 °F21.2 °F74 %29.80 in6.2 miENE (60°)9.2 mphPartly Cloudy
1:00 AM30.2 °F23.0 °F75 %29.80 in5.6 miENE (60°)10.4 mph
1:30 AM30.2 °F23.0 °F75 %29.80 in5.0 miENE (70°)10.4 mph
2:00 AM29.0 °F24.0 °F72 %29.82 in4.0 miENE (60°)11.5 mphClear
2:00 AM30.2 °F23.0 °F75 %29.77 in4.3 miENE (60°)11.5 mph
2:30 AM30.2 °F24.8 °F80 %29.77 in4.3 miENE (70°)11.5 mph
3:00 AM30.2 °F24.8 °F80 %29.77 in3.7 miENE (70°)10.4 mph
3:30 AM30.2 °F24.8 °F80 %29.77 in3.7 miENE (60°)11.5 mph
4:00 AM30.2 °F24.8 °F80 %29.77 in3.1 miENE (60°)11.5 mphMist
4:30 AM28.4 °F24.8 °F86 %29.74 in3.1 miENE (60°)11.5 mphMist
5:00 AM28.4 °F24.8 °F86 %29.74 in3.1 miENE (60°)11.5 mphMist
5:30 AM28.4 °F24.8 °F86 %29.74 inENE (60°)11.5 mphMist
6:00 AM28.4 °F24.8 °F86 %29.74 inENE (60°)11.5 mphMist
6:30 AM28.4 °F24.8 °F86 %29.74 inENE (60°)11.5 mphMist
7:00 AM28.4 °F24.8 °F86 %29.71 inENE (60°)10.4 mphMist
7:30 AM28.4 °F23.0 °F80 %29.71 inENE (70°)10.4 mphMist
8:00 AM28.0 °F24.0 °F78 %29.77 in3.0 miENE (60°)9.2 mphMist
8:00 AM28.4 °F24.8 °F86 %29.71 inENE (60°)9.2 mphMist
8:30 AM30.2 °F24.8 °F80 %29.71 inENE (60°)10.4 mphMist
9:00 AM30.2 °F24.8 °F80 %29.74 inENE (70°)11.5 mphMist
9:30 AM32.0 °F26.6 °F80 %29.71 in3.1 miENE (70°)12.7 mphMist
10:00 AM33.8 °F26.6 °F75 %29.71 in3.7 miENE (70°)12.7 mph
10:30 AM35.6 °F24.8 °F65 %29.71 in4.3 miEast (80°)15.0 mph
11:00 AM37.4 °F24.8 °F60 %29.71 in4.3 miEast (80°)16.1 mph
11:30 AM39.2 °F24.8 °F56 %29.71 in5.0 miEast (90°)17.3 mph
12:00 PM39.2 °F23.0 °F52 %29.71 in5.0 miEast (80°)16.1 mphScattered Clouds
12:30 PM41.0 °F23.0 °F49 %29.71 in5.0 miEast (90°)18.4 mphMostly Cloudy
1:00 PM41.0 °F23.0 °F49 %29.71 in5.0 miENE (70°)19.6 mphScattered Clouds
1:30 PM42.8 °F23.0 °F46 %29.71 in5.0 miEast (80°)17.3 mphMostly Cloudy
2:00 PM43.0 °F24.0 °F33 %29.73 in6.0 miEast (80°)17.3 mphPartly Cloudy
2:00 PM42.8 °F23.0 °F46 %29.71 in5.0 miEast (80°)16.1 mphScattered Clouds
2:30 PM44.6 °F23.0 °F43 %29.71 in5.0 miENE (60°)17.3 mphPartly Cloudy
3:00 PM44.6 °F24.8 °F46 %29.68 in5.0 miEast (80°)17.3 mphScattered Clouds
3:30 PM44.6 °F24.8 °F46 %29.68 in5.6 miENE (60°)17.3 mphScattered Clouds
4:00 PM44.6 °F23.0 °F43 %29.68 in5.6 miENE (70°)18.4 mph
4:30 PM44.6 °F23.0 °F43 %29.68 in5.6 miENE (70°)17.3 mph
5:00 PM44.6 °F24.8 °F46 %29.68 in6.2 miEast (80°)18.4 mph
5:30 PM46.4 °F23.0 °F40 %29.68 in6.2 miENE (60°)17.3 mphPartly Cloudy
6:00 PM44.6 °F23.0 °F43 %29.68 in6.2 miEast (80°)16.1 mph
6:30 PM44.6 °F24.8 °F46 %29.65 in6.2 miENE (60°)18.4 mph
7:00 PM44.6 °F24.8 °F46 %29.68 in6.2 miENE (70°)17.3 mph
7:30 PM42.8 °F24.8 °F49 %29.68 in6.2 miENE (70°)13.8 mph
8:00 PM41.0 °F25.0 °F39 %29.71 in14.0 miENE (60°)12.7 mphClear
8:00 PM41.0 °F24.8 °F53 %29.68 in6.2 miENE (60°)12.7 mph
8:30 PM39.2 °F24.8 °F56 %29.68 in6.2 miNE (50°)11.5 mph
9:00 PM39.2 °F24.8 °F56 %29.68 in6.2 miNE (50°)11.5 mph
9:30 PM39.2 °F23.0 °F52 %29.68 in6.2 miNE (50°)11.5 mph
10:00 PM37.4 °F23.0 °F56 %29.71 in6.2 miNE (50°)11.5 mph
10:30 PM37.4 °F23.0 °F56 %29.71 in6.2 miNE (50°)11.5 mph
11:00 PM35.6 °F23.0 °F60 %29.71 in6.2 miNE (50°)12.7 mph
11:30 PM35.6 °F23.0 °F60 %29.71 in6.2 miNE (50°)12.7 mph
Hourly data recorded from LFOP, located miles away from Rouen, France







STORIES FROM OUR PARTNERS